Terminal Aerodrome Forecast
Issued by NWS Dallas/Fort Worth, TX

Current Version | Previous Version | Text Only | Print | Product List | Glossary On
Versions: 1 2 3 4 5 6 7 8 9 10 11 12 13 14 15 16 17 18 19 20 21 22 23 24 25 26
249
FTUS44 KFWD 261508 AAA
TAFACT
TAF AMD
KACT 261508Z 2615/2712 13005KT P6SM SCT025 SCT250
     FM262100 10008KT P6SM VCTS BKN060CB
     FM270000 13006KT P6SM FEW070 BKN300=

USA.gov is the U.S. government's official web portal to all federal, state and local government web resources and services.